This demonstration page uses our WeatherBlox Daily Observations layout. Learn more.

Hourly Observations for January 1, 2018

Temp ( °F °C ) Dew Point ( °F °C ) Humidity (%) Winds ( mph kmh ) Pressure ( in mb ) Visibility ( mi km ) Precip ( " mm )
12:15 am 00:15 Cloudy -10 -23.3 -14 -25.6 81 81 Calm 31.1 1053 10 16.0934 0 0
12:35 am 00:35 Cloudy -8 -22 -11 -24.1 83 83 Calm 31.07 1052 10 16.0934 0 0
12:55 am 00:55 Cloudy -6 -21.2 -10 -23.5 82 82 Calm 31.07 1052 10 16.0934 0 0
1:15 am 01:15 Cloudy -6 -21 -10 -23.2 83 83 Calm 31.07 1052 10 16.0934 0 0
1:35 am 01:35 Cloudy -5 -20.5 -9 -22.9 81 81 Calm 31.07 1052 10 16.0934 0 0
1:55 am 01:55 Cloudy -4 -20.1 -9 -22.6 81 81 Calm 31.07 1052 10 16.0934 0 0
2:15 am 02:15 Cloudy -4 -19.8 -9 -22.5 79 79 Calm 31.07 1052 10 16.0934 0 0
2:35 am 02:35 Cloudy -3 -19.7 -9 -22.5 79 79 Calm 31.07 1052 10 16.0934 0 0
2:55 am 02:55 Cloudy -3 -19.5 -9 -22.7 76 76 Calm 31.04 1051 10 16.0934 0 0
3:15 am 03:15 Cloudy -3 -19.3 -8 -22.4 77 77 Calm 31.04 1051 10 16.0934 0 0
3:35 am 03:35 Cloudy -2 -19.1 -9 -22.5 75 75 Calm 31.04 1051 10 16.0934 0 0
3:55 am 03:55 Cloudy -2 -18.9 -8 -22.1 76 76 Calm 31.04 1051 10 16.0934 0 0
4:15 am 04:15 Cloudy -2 -18.8 -8 -22 76 76 Calm 31.04 1051 10 16.0934 0 0
4:35 am 04:35 Cloudy -2 -18.8 -8 -22.1 75 75 Calm 31.04 1051 10 16.0934 0 0
4:55 am 04:55 Cloudy -2 -18.7 -8 -22.1 75 75 Calm 31.01 1050 10 16.0934 0 0
5:15 am 05:15 Cloudy -1 -18.5 -8 -22.1 73 73 Calm 31.01 1050 10 16.0934 0 0
5:35 am 05:35 Cloudy -1 -18.4 -8 -22 74 74 Calm 31.01 1050 10 16.0934 0 0
5:55 am 05:55 Cloudy -1 -18.2 -7 -21.5 76 76 Calm 31.01 1050 10 16.0934 0 0
6:15 am 06:15 Cloudy -1 -18.1 -7 -21.4 76 76 Calm 31.01 1050 10 16.0934 0 0
6:35 am 06:35 Cloudy -1 -18.2 -7 -21.6 75 75 Calm 31.01 1050 10 16.0934 0 0
6:55 am 06:55 Cloudy 0 -18 -6 -21.3 76 76 Calm 31.01 1050 10 16.0934 0 0
7:15 am 07:15 Cloudy 0 -18 -6 -21.3 76 76 Calm 31.01 1050 10 16.0934 0 0
7:35 am 07:35 Cloudy 0 -17.9 -6 -21.2 76 76 Calm 31.01 1050 10 16.0934 0 0
7:55 am 07:55 Cloudy 0 -17.8 -6 -21.1 76 76 S 3 6 31.01 1050 10 16.0934 0 0
8:15 am 08:15 Cloudy 0 -17.7 -6 -21.1 75 75 SSW 5 7 31.01 1050 10 16.0934 0 0
8:35 am 08:35 Cloudy 0 -17.6 -6 -21 75 75 SSW 5 7 31.01 1050 10 16.0934 0 0
8:55 am 08:55 Cloudy 1 -17.5 -6 -21 74 74 S 5 7 31.01 1050 10 16.0934 0 0
9:15 am 09:15 Cloudy 1 -17.4 -5 -20.6 76 76 S 3 6 31.01 1050 10 16.0934 0 0
9:35 am 09:35 Cloudy 1 -17.1 -5 -20.4 76 76 S 3 6 30.98 1049 10 16.0934 0 0
9:55 am 09:55 Cloudy 1 -17 -4 -20.2 76 76 S 5 7 30.98 1049 10 16.0934 0 0
10:15 am 10:15 Cloudy 2 -16.5 -3 -19.7 76 76 S 6 9 30.98 1049 10 16.0934 0 0
10:35 am 10:35 Cloudy 2 -16.4 -4 -19.8 75 75 SSW 5 7 30.98 1049 10 16.0934 0 0
10:55 am 10:55 Cloudy 4 -15.7 -2 -19 76 76 S 7 11 30.98 1049 10 16.0934 0 0
11:15 am 11:15 Cloudy with Light Snow 4 -15.6 -2 -18.8 77 77 S 6 9 30.98 1049 10 16.0934 0 0
11:35 am 11:35 Cloudy with Light Snow 4 -15.3 -1 -18.6 76 76 S 6 9 30.95 1048 10 16.0934 0 0
11:55 am 11:55 Cloudy 5 -15.2 -1 -18.5 76 76 S 6 9 30.95 1048 10 16.0934 0 0
12:15 pm 12:15 Cloudy 5 -14.8 -1 -18.5 74 74 SSW 6 9 30.92 1047 10 16.0934 0 0
12:35 pm 12:35 Cloudy 6 -14.5 -1 -18.1 74 74 SW 6 9 30.92 1047 10 16.0934 0 0
12:55 pm 12:55 Cloudy with Light Snow 6 -14.2 0 -17.9 74 74 SSW 5 7 30.89 1046 7 11.26538 0 0
1:15 pm 13:15 Cloudy with Light Snow 6 -14.3 0 -18 74 74 SSE 7 11 30.89 1046 7 11.26538 0 0
1:35 pm 13:35 Cloudy with Light Snow 6 -14.4 -1 -18.1 74 74 SSE 6 9 30.86 1045 4 6.43736 0 0
1:55 pm 13:55 Cloudy with Light Snow 7 -14 1 -17.5 75 75 S 6 9 30.86 1045 10 16.0934 0 0
2:15 pm 14:15 Cloudy with Light Snow 7 -14 0 -17.6 74 74 S 6 9 30.86 1045 10 16.0934 0 0
2:35 pm 14:35 Cloudy with Light Snow 7 -13.9 1 -17.5 74 74 S 7 11 30.83 1044 10 16.0934 0 0
2:55 pm 14:55 Cloudy with Light Snow 7 -13.9 1 -17.3 76 76 SSE 8 13 30.83 1044 10 16.0934 0 0
3:15 pm 15:15 Cloudy 8 -13.5 1 -17.1 75 75 SSE 9 15 30.83 1044 10 16.0934 0 0
3:35 pm 15:35 Cloudy 8 -13.5 1 -17.3 73 73 SSE 8 13 30.83 1044 10 16.0934 0 0
3:55 pm 15:55 Cloudy 8 -13.5 1 -17.2 74 74 SE 8 13 30.83 1044 10 16.0934 0 0
4:15 pm 16:15 Mostly Cloudy 8 -13.1 1 -17 73 73 SSE 9 15 30.83 1044 10 16.0934 0 0
4:35 pm 16:35 Partly Cloudy 8 -13.6 1 -17.4 73 73 SSE 6 9 30.83 1044 10 16.0934 0 0
4:55 pm 16:55 Partly Cloudy 7 -14.1 0 -17.7 74 74 SE 7 11 30.83 1044 10 16.0934 0 0
5:15 pm 17:15 Mostly Cloudy 7 -14 1 -17.3 76 76 SE 3 6 30.83 1044 10 16.0934 0 0
5:35 pm 17:35 Cloudy 7 -13.9 1 -17.3 76 76 SE 7 11 30.83 1044 10 16.0934 0 0
5:55 pm 17:55 Clear -5 -20.4 -10 -23.5 76 76 N 5 7 31.01 1050 10 16.0934 0 0
6:15 pm 18:15 Clear 5 -15.1 -1 -18.2 77 77 SSE 8 13 30.8 1043 10 16.0934 0 0
6:35 pm 18:35 Clear 4 -15.3 -1 -18.4 77 77 SSE 7 11 30.83 1044 10 16.0934 0 0
6:55 pm 18:55 Clear 4 -15.7 -2 -18.9 77 77 SSE 6 9 30.86 1045 10 16.0934 0 0
7:15 pm 19:15 Clear 3 -16.2 -3 -19.3 77 77 SSE 6 9 30.86 1045 10 16.0934 0 0
7:35 pm 19:35 Clear 2 -16.7 -3 -19.6 78 78 SE 6 9 30.86 1045 10 16.0934 0 0
7:55 pm 19:55 Clear 1 -17 -4 -19.8 79 79 SSE 5 7 30.86 1045 10 16.0934 0 0
8:15 pm 20:15 Clear 2 -16.6 -3 -19.3 80 80 SSE 6 9 30.86 1045 10 16.0934 0 0
8:35 pm 20:35 Clear 1 -17 -4 -19.8 79 79 SE 3 6 30.86 1045 10 16.0934 0 0
8:55 pm 20:55 Clear -1 -18.3 -5 -20.6 82 82 SE 3 6 30.89 1046 10 16.0934 0 0
9:15 pm 21:15 Clear 0 -17.9 -4 -20.2 82 82 SE 5 7 30.86 1045 10 16.0934 0 0
9:35 pm 21:35 Clear 1 -17.2 -4 -19.8 80 80 SSE 6 9 30.86 1045 10 16.0934 0 0
9:55 pm 21:55 Clear -1 -18.3 -5 -20.8 81 81 SE 5 7 30.89 1046 10 16.0934 0 0
10:15 pm 22:15 Clear -2 -18.9 -6 -21.2 82 82 SE 5 7 30.89 1046 10 16.0934 0 0
10:35 pm 22:35 Clear -4 -20.2 -8 -22.3 83 83 ESE 5 7 30.89 1046 10 16.0934 0 0
10:55 pm 22:55 Clear -4 -19.8 -7 -21.8 84 84 ESE 7 11 30.89 1046 10 16.0934 0 0
11:15 pm 23:15 Clear -3 -19.6 -7 -21.5 85 85 SE 7 11 30.89 1046 10 16.0934 0 0
11:35 pm 23:35 Clear -4 -19.8 -7 -21.6 86 86 SE 3 6 30.89 1046 10 16.0934 0 0
11:55 pm 23:55 Clear -4 -19.9 -7 -21.6 86 86 SE 5 7 30.89 1046 10 16.0934 0 0

Powered by AerisWeather